GFSNIL_sfc_30mbdewp_000.txt.gz
Dewpoint
73 71 70 69 65 63 61 59 62 69 65 63 62 62 60 59 58 58 58 59 59 57
73 72 68 68 69 66 65 60 65 66 64 61 62 60 59 57 57 57 58 56 58 58
71 72 71 70 70 67 67 66 64 64 61 61 61 60 60 57 57 58 54 53 54 57
69 70 71 71 73 71 69 67 65 64 60 60 60 60 60 59 56 56 56 55 57 59
69 69 70 72 72 70 68 66 65 63 63 61 59 59 60 59 55 55 55 56 58 59
68 69 69 72 70 69 65 65 64 63 64 64 63 60 60 60 59 57 56 57 58 58
68 69 70 70 66 64 62 63 62 63 63 63 62 61 61 60 59 57 56 58 59 59
69 70 69 67 64 62 62 63 59 59 59 61 63 62 61 59 57 57 58 59 60 60
71 70 68 67 65 64 63 60 59 59 60 60 61 59 58 58 58 58 60 60 61 62
71 69 67 66 65 63 61 60 58 59 60 60 61 60 59 59 58 58 60 62 61 60
70 68 68 66 66 63 60 59 61 62 61 60 60 62 61 60 61 61 63 62 61 61
69 67 67 66 65 64 62 61 62 63 62 62 61 62 61 61 58 60 61 63 60 60
68 67 67 66 66 65 64 63 61 62 62 61 63 61 60 59 57 59 60 61 61 60
68 68 68 67 66 65 64 63 63 62 63 63 62 61 60 59 60 58 59 59 60 59

GFSNIL_sfc_30mbdewp_003.txt.gz
Dewpoint
73 69 67 68 65 63 61 61 64 67 67 66 61 62 61 59 59 59 59 59 60 57
74 73 67 68 70 66 65 61 61 65 67 65 61 62 61 59 60 58 58 58 60 58
73 74 72 71 69 67 67 65 65 65 66 64 62 63 63 60 60 59 57 55 56 57
71 72 72 71 70 70 68 69 66 68 66 63 62 62 62 61 59 61 60 60 56 57
71 71 71 72 71 72 71 70 68 68 66 61 62 62 62 60 58 57 57 56 58 58
70 71 71 72 72 73 72 70 67 67 65 62 61 62 62 61 60 58 56 56 58 58
71 71 70 72 73 72 72 69 65 65 64 63 62 61 61 60 60 60 59 58 59 59
72 71 71 72 73 72 70 68 64 63 62 61 60 61 61 60 60 61 60 58 58 60
72 72 72 73 72 70 69 66 62 60 59 60 58 56 60 61 59 60 59 59 60 63
73 73 72 72 71 69 68 65 62 60 61 60 60 59 60 59 59 59 59 61 62 62
74 73 71 70 69 68 68 66 63 61 60 59 60 60 59 59 60 59 58 59 61 61
73 72 70 69 68 68 68 67 64 62 62 62 62 60 60 61 61 61 60 61 61 63
73 71 69 68 68 68 68 66 63 61 64 64 64 61 60 61 62 59 57 61 63 62
71 70 68 68 69 68 67 66 64 63 64 64 64 63 60 60 61 56 56 58 60 58

GFSNIL_sfc_30mbdewp_006.txt.gz
Dewpoint
72 71 71 70 67 68 65 64 69 70 72 70 67 65 65 66 64 64 63 60 61 61
74 72 71 70 71 69 67 68 70 69 71 70 68 66 67 63 64 63 64 63 62 61
75 74 72 70 71 68 69 66 68 70 68 69 67 67 67 64 64 63 61 61 61 62
74 74 73 74 73 70 71 68 69 68 69 69 67 67 66 63 63 63 62 61 61 60
74 74 74 73 73 72 72 70 68 69 69 69 66 67 66 64 60 64 64 64 63 60
73 74 74 74 72 73 72 71 71 70 69 67 65 66 65 65 63 63 61 61 61 61
72 72 72 73 73 72 73 72 71 70 69 67 65 65 65 65 64 63 62 62 62 61
72 72 72 73 73 73 73 73 73 70 69 67 64 64 64 64 64 63 63 63 62 62
71 73 72 72 73 73 74 73 72 69 67 65 63 62 62 65 64 64 63 62 62 63
71 73 73 73 73 74 74 73 70 67 65 64 63 59 60 63 63 62 62 63 62 61
72 73 73 73 73 74 73 71 70 67 64 62 63 60 60 60 62 62 62 62 61 61
74 74 74 73 73 73 71 70 69 67 63 63 63 60 59 59 60 61 61 61 61 62
75 74 73 72 71 70 70 70 70 67 65 64 64 61 59 60 60 60 62 61 62 61
75 74 72 71 70 69 69 70 68 64 64 64 65 65 59 59 62 61 61 60 61 62

GFSNIL_sfc_30mbdewp_009.txt.gz
Dewpoint
72 69 68 70 70 70 69 70 70 70 69 67 65 67 66 64 64 63 62 62 60 60
72 71 70 71 71 70 68 69 69 71 70 68 66 66 65 64 62 65 63 60 60 60
73 71 71 71 70 71 68 69 68 70 71 70 66 64 65 63 64 63 63 63 62 60
73 72 71 72 71 70 69 69 69 69 71 69 67 66 66 63 62 64 60 61 59 61
74 74 72 71 72 72 69 69 70 70 68 69 67 67 66 63 63 61 62 60 60 59
73 74 73 72 73 73 70 70 69 68 68 68 68 66 66 64 62 63 63 62 62 61
73 73 73 73 72 73 73 71 69 68 68 69 67 66 66 65 63 63 64 63 63 62
73 73 73 73 73 72 73 72 71 70 70 69 67 66 65 65 64 63 63 63 63 63
72 72 73 73 73 73 72 73 72 71 69 69 66 65 65 65 64 64 64 63 63 61
70 72 72 73 72 73 73 74 73 71 69 68 66 63 64 65 64 63 63 63 63 62
71 71 72 72 72 73 73 73 72 70 68 67 65 62 61 62 64 64 64 64 64 62
69 71 72 72 72 74 73 72 70 69 67 65 64 62 60 60 63 62 62 63 63 62
69 71 73 72 73 73 72 71 70 68 66 65 64 62 60 60 60 60 60 61 62 61
73 74 73 73 71 71 70 70 69 69 65 64 64 62 60 59 60 59 60 60 60 61

GFSNIL_sfc_30mbdewp_012.txt.gz
Dewpoint
70 69 69 68 70 69 70 70 70 71 70 67 65 64 63 63 63 63 61 62 61 60
71 70 69 70 70 70 70 69 70 71 69 67 65 65 64 63 62 64 62 61 60 60
70 71 70 69 70 70 69 70 70 70 69 67 65 66 65 64 63 63 64 62 59 60
71 70 71 70 70 71 69 68 69 69 69 67 66 65 64 64 63 61 62 63 61 61
72 71 70 70 70 71 70 68 69 69 69 69 67 64 65 63 62 62 61 61 61 60
72 72 71 70 70 71 70 69 69 68 69 69 68 66 65 64 62 61 62 62 60 60
72 72 72 71 70 70 71 69 69 69 68 69 68 67 66 65 63 63 62 62 62 61
72 73 73 72 72 71 72 70 69 68 68 68 68 67 66 65 64 62 62 63 63 63
72 73 73 73 73 71 72 72 70 68 67 68 68 67 66 66 65 63 62 61 62 63
72 72 72 73 73 73 71 72 71 69 69 68 68 67 65 66 65 64 63 62 62 62
72 72 72 73 73 73 73 72 72 71 69 69 68 66 64 65 65 64 63 63 63 63
72 71 72 72 72 73 73 73 72 71 70 69 69 64 63 65 65 64 63 64 64 64
71 71 71 72 72 73 73 73 72 70 70 68 67 63 62 63 62 62 63 63 63 63
70 70 71 72 73 73 73 72 71 69 67 66 66 65 64 59 60 60 61 61 61 61

GFSNIL_sfc_30mbdewp_015.txt.gz
Dewpoint
69 69 68 68 67 68 69 70 71 71 70 70 66 65 64 62 61 62 62 60 59 61
70 69 69 68 68 68 70 70 70 71 70 69 67 64 63 62 62 63 61 61 61 60
70 70 69 69 68 68 69 70 70 71 70 69 66 65 63 62 62 63 62 61 61 60
69 70 69 69 69 69 69 69 70 70 70 68 66 65 64 63 62 62 62 63 60 59
68 69 70 69 69 70 70 69 69 69 69 68 67 65 64 63 63 61 60 62 62 61
69 69 70 70 70 70 70 69 69 69 69 68 67 65 64 63 63 62 61 60 61 61
69 70 69 69 70 70 70 69 68 69 69 69 68 67 65 65 63 62 62 62 61 60
70 70 71 70 69 69 70 70 69 68 68 69 69 68 66 65 64 63 62 62 62 62
70 71 71 71 71 70 70 70 69 68 68 68 69 68 67 67 66 64 64 62 63 63
70 71 71 72 71 71 70 71 69 68 68 68 68 67 66 66 66 65 64 64 63 62
70 70 71 72 72 72 71 71 70 69 68 68 68 66 66 66 66 65 65 64 64 62
71 71 71 72 72 72 72 71 71 70 69 69 69 66 65 65 65 66 65 65 64 63
71 71 71 72 72 72 72 72 71 71 70 70 69 66 65 66 66 65 65 63 63 63
71 71 71 72 72 73 73 72 72 72 71 70 69 63 63 64 66 64 63 63 62 63

GFSNIL_sfc_30mbdewp_021.txt.gz
Dewpoint
71 70 69 69 67 67 67 68 70 72 72 72 72 71 70 69 68 66 65 65 63 61
71 70 69 69 70 68 70 68 70 71 72 72 72 71 70 68 68 66 65 64 65 62
70 70 70 70 70 69 69 70 69 70 71 72 72 72 71 69 68 66 65 63 64 63
70 70 70 70 70 70 70 71 70 71 71 71 71 71 71 70 68 66 65 64 64 64
70 70 70 70 70 71 71 71 72 71 71 71 71 71 71 70 68 67 66 65 64 63
70 70 70 70 70 71 71 71 70 71 71 71 71 71 71 70 69 68 67 66 64 63
69 70 70 71 71 71 71 71 71 72 71 71 71 71 70 70 70 69 68 67 65 64
69 70 70 71 71 71 71 71 71 71 71 71 70 70 70 70 70 69 68 67 66 65
69 70 70 71 71 71 71 71 71 71 71 71 70 69 69 70 70 69 69 68 67 66
68 69 70 71 71 71 71 71 71 71 71 71 71 68 68 68 69 69 69 68 68 67
68 69 70 70 70 71 71 71 71 71 71 71 71 68 67 67 69 69 69 69 68 67
69 69 70 70 70 70 71 71 71 71 71 71 71 68 66 66 68 69 69 69 69 68
69 69 69 70 71 71 71 71 70 71 71 71 71 68 66 66 68 68 69 69 69 66
70 70 70 71 72 71 71 71 71 71 71 71 71 71 65 64 69 68 68 67 67 68

GFSNIL_sfc_30mbdewp_024.txt.gz
Dewpoint
73 70 69 70 67 67 65 65 66 69 71 71 71 72 72 71 70 69 68 66 61 55
73 72 68 70 71 68 69 66 67 69 71 71 71 71 72 71 70 69 69 66 64 60
71 73 72 72 71 70 69 70 67 70 70 70 71 71 72 70 70 70 68 65 63 63
70 70 72 71 72 73 71 71 71 71 70 70 70 71 72 71 68 70 69 66 64 64
71 71 70 72 72 73 72 72 72 71 71 70 70 71 72 71 68 70 69 68 66 65
70 71 71 72 72 73 73 73 71 72 72 71 70 71 71 72 71 69 70 69 68 66
70 71 71 72 73 73 73 73 73 73 73 72 71 70 70 71 71 70 70 70 69 67
70 72 72 72 73 73 73 73 73 73 73 73 71 69 71 71 70 71 70 70 70 69
70 72 72 73 73 73 73 73 74 73 73 72 70 68 68 71 70 71 71 70 70 69
70 72 72 73 73 73 73 73 73 73 73 73 73 67 66 68 70 71 71 71 70 70
70 71 72 73 73 73 73 73 73 73 73 73 73 70 66 67 70 71 70 70 70 70
70 70 71 72 73 73 73 73 73 73 73 73 73 70 67 66 69 69 71 71 71 71
70 70 71 72 73 73 73 72 71 72 73 73 73 71 67 67 68 67 68 70 72 69
70 71 71 72 73 73 72 71 72 72 73 73 73 73 66 66 70 66 67 65 68 70

GFSNIL_sfc_30mbdewp_027.txt.gz
Dewpoint
73 70 68 68 65 64 62 63 66 73 72 72 72 72 72 71 70 70 69 67 64 57
74 72 68 69 71 68 68 64 68 71 72 72 72 72 73 70 71 70 70 68 67 62
74 74 72 72 72 69 69 70 69 69 70 72 72 73 73 70 71 72 70 67 68 66
73 73 74 73 73 73 73 73 71 72 71 72 72 73 73 72 70 72 71 69 68 67
72 73 73 74 73 74 73 73 74 73 73 73 72 73 73 73 68 71 71 70 69 66
72 72 72 73 74 74 74 74 73 74 74 74 73 72 73 73 73 71 71 71 71 69
72 72 72 72 74 74 74 74 74 73 74 74 74 73 73 73 73 73 71 72 72 71
71 72 73 73 73 74 74 74 75 74 74 75 74 72 72 72 73 73 72 72 72 72
70 72 73 74 74 75 74 75 75 74 74 74 73 70 69 72 72 73 73 72 72 72
70 72 73 74 74 74 75 75 75 75 74 74 74 70 67 68 71 72 73 73 72 72
69 71 73 74 74 75 75 75 75 75 75 74 74 72 68 66 70 71 72 73 73 73
70 71 73 74 74 75 75 75 74 75 75 75 75 72 70 66 69 70 71 72 73 73
71 72 73 74 74 75 75 75 74 74 75 75 75 74 70 68 70 69 70 71 73 70
72 73 73 74 74 75 75 73 74 74 74 75 75 75 71 67 72 69 69 69 70 71

GFSNIL_sfc_30mbdewp_030.txt.gz
Dewpoint
74 70 68 71 66 67 67 67 72 72 73 73 74 73 74 74 73 73 72 71 67 65
72 73 69 69 71 69 68 67 70 73 72 73 73 74 73 72 74 72 72 71 71 67
72 73 72 69 71 69 70 69 71 73 73 73 73 74 74 73 73 72 73 71 70 69
74 73 72 72 71 73 71 73 70 74 74 74 73 74 74 73 72 73 72 72 71 69
73 74 73 71 72 73 74 72 74 73 73 73 73 73 73 73 71 72 73 72 71 70
73 73 73 74 72 73 73 74 72 74 73 73 73 73 74 74 73 71 73 73 72 70
73 73 73 73 74 72 74 73 74 73 74 74 74 74 73 73 73 73 72 73 73 72
72 73 73 73 73 74 73 73 74 73 74 74 74 74 73 73 73 74 73 72 73 73
71 72 74 73 74 74 74 74 74 74 74 74 74 73 72 73 73 73 73 73 72 73
70 71 73 74 74 74 74 74 74 74 74 74 74 72 71 71 72 72 73 73 73 73
71 71 72 73 74 74 74 75 74 75 75 75 74 73 70 70 71 72 72 73 73 73
72 71 72 73 74 74 75 75 75 75 75 75 75 73 71 68 70 71 71 72 73 73
69 71 72 73 74 75 75 75 75 75 75 75 75 75 71 69 72 70 70 71 72 72
72 71 72 73 75 75 75 75 75 75 75 75 75 75 72 69 73 72 71 70 70 71

GFSNIL_sfc_30mbdewp_033.txt.gz
Dewpoint
73 70 67 70 66 68 69 71 71 72 73 72 72 72 72 71 72 72 70 70 67 63
70 73 68 66 70 66 69 68 71 72 74 73 72 72 73 72 71 73 71 69 70 66
70 71 72 68 67 71 67 69 69 72 72 73 73 73 72 73 73 72 72 71 69 69
71 70 72 71 68 69 71 70 69 72 72 72 72 74 73 72 73 73 72 72 70 69
72 72 70 72 72 67 71 70 73 74 73 73 73 73 74 73 72 71 72 72 71 70
72 72 71 70 71 73 68 72 70 74 73 73 73 73 73 73 73 72 72 72 72 71
72 72 73 72 71 70 72 71 74 71 73 73 73 73 73 73 73 73 71 73 73 72
73 73 73 73 73 73 70 72 72 73 72 74 73 73 73 73 73 73 73 71 73 73
72 72 73 73 73 73 73 71 72 72 72 73 73 73 72 73 72 73 72 72 72 73
71 72 72 73 73 72 73 73 72 71 73 72 73 72 71 72 72 72 72 72 72 72
71 72 72 73 72 73 73 73 73 73 72 73 73 72 71 70 72 72 72 73 73 72
70 71 72 72 73 73 73 73 73 74 74 73 74 73 71 70 71 72 72 72 73 73
70 71 71 72 72 73 73 73 74 73 74 74 74 74 71 70 72 71 71 72 72 71
72 72 73 72 72 73 73 74 74 74 74 75 75 75 72 70 73 73 72 71 71 71

GFSNIL_sfc_30mbdewp_036.txt.gz
Dewpoint
69 68 67 67 66 66 69 69 69 72 72 72 72 71 70 70 70 71 69 68 66 64
70 69 69 68 68 67 69 70 70 71 72 72 72 71 71 70 70 72 71 68 69 66
70 72 70 68 68 70 68 69 71 71 72 72 72 72 72 72 71 71 71 70 68 69
68 69 72 69 67 67 70 69 69 71 71 72 72 72 71 72 72 71 70 72 70 68
70 69 69 72 70 68 68 70 69 71 71 72 72 72 71 71 71 73 71 71 71 70
71 70 69 69 72 70 68 69 71 72 71 71 72 72 73 72 71 71 72 72 71 71
70 71 71 70 69 72 71 67 69 72 73 72 72 72 72 72 72 72 72 72 72 71
70 71 72 72 70 70 70 72 68 69 71 73 73 73 72 72 72 72 72 72 73 72
71 71 71 72 72 71 70 69 71 71 72 71 72 72 72 72 72 72 72 71 71 72
71 72 72 72 72 72 72 71 69 69 71 71 72 71 71 71 72 72 72 71 71 72
71 71 72 72 72 72 72 73 72 71 70 72 71 71 70 70 72 72 72 72 72 71
70 72 72 72 72 72 72 72 72 73 72 71 71 71 70 69 71 72 72 72 72 72
69 70 71 72 72 72 72 72 72 72 73 73 73 71 70 70 71 71 71 72 73 71
67 69 71 71 72 72 72 72 72 72 73 73 73 73 71 69 72 73 72 72 72 72

GFSNIL_sfc_30mbdewp_042.txt.gz
Dewpoint
65 65 65 66 66 65 66 68 69 70 71 71 70 70 71 69 68 69 69 69 67 64
65 65 65 66 67 67 67 68 69 70 70 71 71 71 71 70 70 70 70 69 68 67
65 66 66 67 66 67 67 68 68 69 70 71 71 71 71 71 70 70 70 70 69 68
66 66 67 67 67 67 67 68 68 68 69 70 71 71 71 71 70 70 69 70 70 69
67 67 67 68 68 68 67 68 68 69 69 70 70 71 71 70 71 70 70 69 69 70
67 68 68 68 69 68 68 68 68 69 69 69 70 71 71 71 71 71 71 70 70 69
67 68 68 69 69 68 69 69 69 69 69 70 70 71 71 71 71 71 71 71 71 70
67 68 69 69 71 70 68 68 69 69 69 70 70 70 71 72 71 71 71 71 72 72
68 68 68 68 69 71 71 70 69 69 69 69 69 69 69 71 71 71 71 70 71 71
69 69 69 69 69 69 69 71 70 69 69 69 70 69 69 69 70 71 71 71 71 71
69 69 70 70 70 69 69 69 70 70 70 69 69 69 68 68 70 70 71 71 71 71
69 69 69 70 70 70 70 70 69 69 70 70 70 68 68 67 70 71 71 71 72 72
70 70 69 70 70 71 71 71 71 70 70 70 70 69 68 67 69 69 70 71 72 71
70 70 71 71 71 71 71 71 71 72 72 72 71 70 67 66 70 70 70 70 71 72

GFSNIL_sfc_30mbdewp_045.txt.gz
Dewpoint
69 66 66 67 65 65 64 65 68 71 71 72 72 72 72 71 71 71 70 70 70 67
69 68 66 67 68 66 67 65 69 70 71 71 71 72 72 71 71 71 71 71 71 70
68 69 68 68 68 67 67 68 66 70 70 71 71 72 72 71 71 72 71 70 71 71
67 68 68 68 68 69 68 69 69 70 70 71 71 71 72 71 71 72 72 72 71 71
67 67 67 68 68 69 69 69 69 70 70 71 71 71 71 71 69 71 71 71 71 71
66 67 68 68 68 69 69 69 69 69 69 70 70 71 71 71 71 71 71 71 71 71
67 67 68 69 69 69 70 69 69 70 70 69 70 70 71 71 71 71 71 71 71 71
68 68 69 69 70 70 70 70 70 70 69 70 69 69 70 71 71 71 71 72 72 72
68 69 69 70 70 70 70 70 70 70 70 70 69 67 68 70 70 71 72 71 71 72
69 69 70 70 71 71 70 70 70 70 70 70 71 69 67 68 69 69 70 71 71 71
69 69 70 70 70 71 71 71 71 70 71 70 71 70 68 67 69 70 71 71 71 71
70 70 70 70 70 70 70 70 70 71 71 71 71 69 69 68 69 69 71 71 71 71
70 70 70 71 71 71 71 70 70 70 71 71 72 71 67 67 68 68 69 71 72 71
71 71 71 72 72 71 71 70 71 70 71 71 71 71 69 66 69 68 68 69 69 70

GFSNIL_sfc_30mbdewp_048.txt.gz
Dewpoint
69 65 65 66 64 63 61 61 63 70 70 71 71 71 71 71 70 69 69 69 68 61
70 68 65 67 66 64 65 62 64 66 69 69 70 71 71 69 70 70 70 70 70 68
67 69 68 67 67 67 65 67 64 67 67 67 69 70 71 68 70 70 70 68 68 70
66 67 68 67 68 68 68 67 69 67 66 68 69 70 71 70 68 70 70 70 69 70
67 67 66 68 68 69 69 69 69 68 68 67 68 69 71 70 68 69 70 70 70 70
66 66 66 68 68 69 69 70 69 68 69 68 67 69 70 70 70 69 69 70 69 70
66 66 66 68 69 68 70 70 69 69 69 69 68 67 69 69 70 69 69 70 70 70
68 68 68 69 70 70 70 70 70 69 69 69 68 66 67 68 68 69 69 69 70 71
69 70 70 70 71 71 71 71 70 69 69 69 68 65 65 66 66 67 69 69 70 71
70 71 71 71 72 71 71 71 71 70 69 70 70 67 65 66 66 65 67 69 69 68
71 71 72 72 72 73 71 71 71 71 71 71 71 69 67 66 68 68 68 68 68 70
71 71 71 71 72 72 71 71 71 71 72 72 72 69 69 68 68 68 70 69 70 70
71 71 71 72 72 72 72 71 70 70 71 71 72 71 68 68 69 67 67 69 72 70
71 72 72 73 73 73 71 70 71 70 71 72 72 72 69 67 70 66 65 65 64 65

GFSNIL_sfc_30mbdewp_051.txt.gz
Dewpoint
68 63 60 63 61 61 58 59 71 70 69 70 70 69 70 70 69 68 68 68 68 63
69 66 60 61 67 65 64 60 63 68 69 69 68 70 70 68 70 70 70 69 69 67
70 71 67 68 69 67 66 66 64 65 66 68 68 69 71 68 70 69 68 66 70 69
68 69 70 69 70 70 68 69 69 68 68 68 68 70 72 71 68 69 70 69 67 69
68 68 68 69 70 71 71 70 70 70 69 68 68 70 71 70 66 68 69 69 69 68
67 68 67 69 70 71 71 72 69 71 71 70 69 70 71 71 70 69 68 69 69 69
68 68 68 68 70 71 72 72 72 72 72 71 70 69 69 70 71 70 69 70 70 70
68 68 69 68 70 71 72 73 73 73 72 72 69 67 69 70 70 71 70 70 70 70
68 69 69 69 71 72 72 73 73 73 72 71 68 65 65 68 68 70 70 71 71 71
69 70 70 70 71 72 72 73 73 73 73 72 72 66 64 64 66 68 69 70 71 70
70 71 71 72 72 73 73 73 73 73 73 73 73 70 66 64 68 67 68 70 71 71
70 71 72 72 72 73 73 73 73 74 74 74 73 70 68 66 68 67 69 70 70 70
71 72 72 73 73 74 74 73 72 73 74 74 74 73 68 68 68 67 68 70 72 71
72 73 73 74 74 74 74 71 73 72 73 73 73 74 69 66 71 67 65 65 63 64

GFSNIL_sfc_30mbdewp_057.txt.gz
Dewpoint
69 65 67 68 69 69 69 69 72 71 72 71 72 71 71 70 70 71 69 69 71 67
71 65 66 66 68 66 69 69 70 72 71 72 72 72 72 70 71 71 71 69 69 70
68 70 66 66 66 67 64 67 70 73 71 72 72 71 73 70 71 70 71 71 71 70
66 69 70 66 64 67 66 72 72 72 73 73 72 72 71 71 71 70 70 71 70 70
67 67 68 68 65 63 67 68 72 72 72 71 71 72 72 71 71 70 70 71 70 70
68 66 67 65 68 65 67 67 70 72 72 72 71 70 72 71 71 71 71 71 71 70
68 68 65 65 64 70 67 72 71 72 71 71 70 71 71 72 72 72 71 72 71 71
69 68 68 66 66 62 71 67 71 71 73 72 72 71 71 72 72 72 71 71 71 72
69 68 68 68 69 67 65 71 69 70 71 73 72 71 70 71 72 73 72 71 72 72
69 69 68 69 68 70 66 67 72 71 72 72 73 71 70 69 70 70 72 72 72 72
69 69 70 69 68 69 70 68 68 71 72 72 72 72 70 69 69 70 70 73 73 72
68 69 70 69 69 68 70 70 69 71 72 72 73 72 71 68 66 68 69 71 71 72
68 69 69 70 69 70 69 69 71 70 71 73 73 72 71 69 69 66 67 69 70 71
68 68 69 70 70 69 70 69 69 71 71 72 73 73 71 69 70 69 67 67 68 70

GFSNIL_sfc_30mbdewp_060.txt.gz
Dewpoint
65 65 66 67 68 68 69 70 72 71 71 71 70 70 70 70 69 70 69 68 69 68
69 66 65 68 70 69 69 69 72 71 71 71 71 70 70 69 69 70 71 69 67 68
67 69 66 66 67 69 69 69 70 71 71 71 71 71 71 69 70 70 70 70 70 69
65 67 69 65 65 66 67 68 69 71 71 70 71 71 72 70 69 70 69 70 69 69
64 65 68 69 65 65 66 69 70 72 71 71 71 71 70 70 70 70 69 69 70 70
66 64 65 67 68 65 64 67 72 72 72 71 71 72 71 71 70 70 70 70 70 70
68 65 64 65 67 68 65 63 68 72 71 71 71 71 71 71 71 70 70 71 71 71
67 68 66 64 66 66 68 66 66 69 71 71 71 70 70 70 70 70 70 71 71 71
67 68 68 66 64 65 64 68 67 70 70 71 71 70 70 70 70 71 70 70 71 71
69 68 68 68 66 65 64 62 67 67 71 71 71 70 69 69 70 71 71 71 71 71
69 69 69 68 68 67 67 64 62 68 68 69 72 71 69 69 70 70 70 72 72 72
69 69 69 68 68 68 69 68 64 66 71 70 69 70 70 69 70 70 69 70 71 72
66 69 69 69 68 68 68 68 69 67 67 70 71 71 69 69 70 69 69 69 70 70
64 67 69 69 69 69 69 68 69 69 68 69 71 71 69 68 71 70 69 68 68 69

GFSNIL_sfc_30mbdewp_063.txt.gz
Dewpoint
64 65 65 66 67 67 68 70 70 70 70 70 69 70 69 70 69 70 68 68 69 67
64 64 64 66 68 68 69 69 71 71 70 71 70 70 70 69 69 69 69 68 67 68
67 65 65 65 67 69 69 69 70 71 70 70 71 70 70 69 69 69 69 70 69 68
65 68 67 65 65 66 69 69 69 70 71 70 70 71 70 70 69 69 69 69 70 69
64 65 67 67 66 65 65 67 68 69 70 70 70 70 70 70 70 69 69 69 69 69
64 64 64 67 68 66 65 65 67 69 70 70 70 70 70 70 70 70 70 70 69 69
65 64 64 64 66 68 66 65 65 69 71 71 71 71 71 70 70 70 70 70 70 70
66 65 64 63 64 66 67 66 65 66 71 71 71 71 71 71 71 70 70 70 70 70
66 67 65 64 63 64 66 67 66 65 66 70 71 70 70 70 70 71 70 69 70 70
66 66 67 66 64 63 64 64 65 66 67 67 69 70 69 69 69 69 70 69 69 70
67 66 67 68 67 65 64 64 63 63 66 68 68 69 68 68 69 69 70 70 70 70
68 68 67 68 68 67 65 65 64 63 63 65 67 68 69 68 68 69 69 70 70 71
67 69 69 68 68 68 68 67 66 65 63 64 66 66 68 68 69 69 69 70 70 69
63 64 69 70 70 68 68 68 68 68 67 65 68 68 66 66 69 68 68 69 68 69

GFSNIL_sfc_30mbdewp_069.txt.gz
Dewpoint
69 67 67 68 66 67 67 68 71 72 72 72 72 71 72 70 69 70 69 70 71 67
69 68 67 68 69 67 68 68 71 72 72 72 72 72 71 69 71 71 71 69 70 69
67 68 68 69 69 68 69 70 70 71 71 72 72 72 72 71 71 71 70 69 71 70
66 67 68 67 68 69 70 70 71 71 71 71 72 72 72 71 70 70 70 70 70 70
66 67 66 67 67 69 70 70 71 71 71 72 71 72 72 71 70 70 70 70 70 69
66 66 66 66 67 67 68 69 69 71 72 72 71 72 72 71 71 71 70 70 70 70
66 67 66 68 67 67 68 68 68 69 70 71 72 72 71 72 71 71 71 71 70 70
66 66 66 67 68 68 68 67 68 68 68 69 69 69 71 71 71 71 71 71 71 71
66 67 67 67 67 68 68 68 68 67 67 67 66 65 68 70 70 71 71 70 71 71
66 67 68 67 67 67 68 68 68 67 67 67 68 66 67 69 67 70 71 71 71 70
66 67 68 68 67 68 67 67 68 67 68 68 68 67 66 68 68 69 69 70 71 71
66 66 67 67 68 68 67 67 67 67 68 68 68 65 65 66 67 66 69 70 70 71
68 67 68 68 68 68 69 68 67 66 67 68 68 67 64 64 64 64 65 68 70 69
64 67 66 67 70 69 69 69 68 68 67 68 68 68 65 63 66 65 65 64 63 64

GFSNIL_sfc_30mbdewp_072.txt.gz
Dewpoint
69 67 67 66 62 64 64 65 67 70 68 69 69 68 68 67 66 66 67 67 68 62
70 69 65 65 67 65 65 64 69 68 67 68 69 70 70 67 68 67 68 66 67 66
68 69 68 68 68 66 64 67 66 69 69 68 69 71 71 66 68 68 66 64 67 68
67 67 69 68 68 68 67 67 69 69 69 69 68 70 71 69 67 70 68 66 67 68
67 67 66 68 67 68 68 68 69 70 70 70 69 70 70 69 66 67 67 68 67 67
67 67 66 66 67 67 68 68 68 69 70 69 69 71 71 69 68 69 68 68 68 68
67 66 66 66 67 67 68 68 67 68 69 69 67 69 70 70 69 68 68 69 69 68
66 67 67 66 67 68 68 68 68 67 67 68 68 66 68 70 69 69 69 70 70 69
66 66 67 68 68 68 68 68 68 67 66 66 65 65 66 69 69 69 69 69 70 70
67 67 67 68 68 68 68 68 69 68 67 67 67 64 64 67 66 66 67 68 68 69
66 66 67 69 69 68 69 68 68 69 69 69 68 66 64 65 67 67 67 67 68 69
63 68 67 67 68 69 69 69 68 68 69 70 70 66 66 65 65 64 67 68 69 70
62 64 66 67 69 70 70 70 69 68 68 69 69 69 66 65 65 64 62 65 69 69
58 61 62 65 68 70 70 70 70 70 69 69 69 70 67 64 66 64 63 62 60 60

GFSNIL_sfc_30mbdewp_075.txt.gz
Dewpoint
69 67 65 66 65 64 68 68 70 69 68 68 69 68 68 68 66 66 65 64 66 67
70 69 64 66 66 65 66 69 68 68 68 67 67 68 68 67 67 68 66 65 65 66
69 70 69 66 66 65 67 65 69 68 68 67 67 68 69 68 68 66 65 63 67 67
68 69 70 68 67 67 66 67 67 69 68 68 68 68 69 70 67 67 67 67 65 68
67 68 67 69 68 69 69 67 67 69 69 69 68 69 69 68 64 67 67 67 67 65
66 67 67 67 68 69 69 69 66 68 69 68 68 69 69 69 68 67 67 66 67 67
67 67 68 68 68 68 70 69 69 68 69 69 67 67 69 70 70 69 68 68 67 67
66 68 68 68 69 69 69 69 69 69 69 68 68 66 68 68 69 69 69 69 68 69
68 69 69 68 69 69 70 70 70 69 69 68 65 63 64 67 68 69 70 70 71 71
67 68 69 70 70 70 70 70 71 70 69 70 70 65 63 65 66 68 70 69 71 69
59 64 67 68 69 70 71 70 70 70 71 71 71 68 65 63 68 68 68 69 70 71
55 60 63 64 68 69 69 69 70 70 71 72 72 69 67 64 65 65 68 69 69 70
52 56 62 62 62 68 70 69 69 69 70 71 71 72 69 65 67 65 65 67 69 68
52 52 55 59 60 64 67 70 70 69 70 71 71 72 69 67 69 67 65 64 64 65

GFSNIL_sfc_30mbdewp_078.txt.gz
Dewpoint
71 69 70 69 69 66 65 69 70 70 72 72 70 70 70 70 70 70 67 66 68 68
71 71 68 67 70 69 68 70 70 70 71 71 70 71 70 68 69 68 69 70 67 68
72 73 72 72 68 70 70 69 67 70 70 71 70 70 70 70 68 69 68 66 68 68
71 72 72 72 70 69 69 70 66 59 62 70 70 70 70 69 68 68 68 71 69 68
71 71 72 72 71 71 71 71 70 65 67 70 70 71 70 70 69 68 69 69 68 68
70 71 70 72 72 72 72 72 70 69 71 70 69 70 70 70 71 69 69 70 70 69
69 69 70 71 72 71 72 72 71 71 72 71 71 71 70 70 71 70 70 70 70 71
67 70 70 70 70 71 71 72 72 72 71 72 71 69 70 71 72 70 69 70 70 71
68 69 69 70 70 71 71 71 72 72 72 70 70 66 66 70 71 72 72 70 71 72
62 65 68 70 70 71 71 71 71 72 72 71 71 68 64 64 69 70 71 71 71 71
55 59 64 67 67 69 71 71 71 71 72 72 72 70 68 66 66 69 69 70 72 71
54 54 57 64 65 65 68 71 71 71 71 72 73 71 69 67 67 67 68 70 70 70
55 55 55 56 62 64 66 67 71 71 71 71 71 72 71 68 69 68 67 67 69 69
54 55 55 55 56 62 63 64 67 67 71 71 71 72 70 69 71 70 69 68 67 67

GFSNIL_sfc_30mbdewp_084.txt.gz
Dewpoint
68 66 63 66 68 67 69 69 70 70 70 70 70 69 68 69 68 68 69 65 67 67
69 68 67 68 67 67 69 69 68 70 70 70 69 69 70 68 68 69 68 67 68 67
69 69 67 68 65 67 68 69 70 70 70 70 70 69 70 69 68 68 67 66 66 66
70 70 69 69 69 70 69 69 69 68 67 68 69 71 70 69 69 68 67 67 69 68
70 70 70 70 70 70 69 68 68 66 65 64 67 69 70 69 69 68 67 67 68 68
67 69 68 69 70 70 69 69 68 67 64 63 66 68 70 70 69 68 68 68 67 68
66 66 66 68 70 71 70 69 68 66 65 65 65 67 69 70 69 70 70 69 69 69
67 67 68 66 64 64 69 71 69 68 67 66 68 69 69 70 70 69 68 69 70 70
63 64 65 67 66 66 67 70 71 71 70 71 72 71 70 70 70 69 68 68 68 69
59 59 60 63 66 64 64 68 70 70 70 70 71 71 70 69 69 70 70 70 69 69
57 57 58 56 57 60 65 64 66 68 71 71 71 71 70 69 68 68 69 71 71 69
55 54 54 57 58 58 59 59 61 64 66 67 70 71 69 68 69 68 67 67 69 71
51 51 51 51 52 55 57 59 60 59 63 63 64 67 68 69 69 69 69 69 69 68
49 49 49 49 50 51 52 55 56 58 60 62 63 64 66 68 68 69 70 69 69 69

GFSNIL_sfc_30mbdewp_087.txt.gz
Dewpoint
68 66 65 67 68 68 68 69 70 70 70 69 68 67 68 69 69 68 68 66 67 67
68 66 64 64 67 68 68 69 69 70 70 69 69 68 69 68 67 68 68 67 67 67
69 68 67 68 67 67 67 68 69 70 70 70 70 69 69 69 68 67 67 66 66 65
69 69 69 68 67 66 66 68 69 69 70 70 70 70 70 69 69 68 67 67 67 68
69 70 69 69 69 70 70 69 68 69 68 68 68 69 69 70 69 68 67 67 67 66
66 67 69 69 70 70 70 69 68 68 67 66 64 67 69 70 69 69 68 68 67 67
66 66 67 65 66 68 70 70 69 68 67 65 64 64 68 69 69 69 69 69 69 68
66 66 67 67 66 66 66 68 71 69 67 66 65 66 66 67 69 69 69 69 69 70
64 63 64 66 66 65 66 67 68 70 70 69 69 68 68 69 69 69 69 68 68 68
60 60 59 59 59 63 64 64 64 66 68 70 70 71 70 69 70 70 70 69 69 69
57 57 58 59 58 58 59 58 59 60 62 66 68 67 68 67 68 68 68 69 70 70
51 52 51 51 53 55 55 57 58 60 60 61 61 63 62 64 68 68 68 68 68 69
48 49 48 48 49 51 53 53 57 57 59 60 62 63 63 63 66 67 68 69 69 69
45 46 46 47 48 48 49 50 51 54 56 56 58 59 61 58 63 66 68 69 69 70

GFSNIL_sfc_30mbdewp_093.txt.gz
Dewpoint
70 68 68 68 69 68 69 70 71 71 70 71 71 70 71 69 69 71 69 69 69 67
69 69 68 70 70 70 71 69 71 70 69 71 71 70 70 68 70 71 70 69 69 66
68 69 70 69 68 69 70 71 71 71 71 71 71 71 71 70 70 70 69 68 69 69
68 68 70 69 70 70 70 70 70 71 70 71 71 71 71 71 70 70 70 69 69 69
69 68 69 70 70 71 70 70 70 70 70 70 69 71 71 70 68 69 69 69 69 68
68 69 70 71 71 71 71 71 71 71 71 70 71 71 71 71 70 69 69 69 69 69
67 68 68 68 69 70 71 71 71 71 71 71 70 69 68 69 70 70 69 69 70 70
67 68 68 68 68 68 68 69 71 71 71 71 70 69 69 68 68 68 69 68 69 70
66 65 64 66 67 66 66 67 67 69 70 70 69 67 68 69 69 69 70 70 71 70
63 63 62 62 62 62 63 63 63 63 65 66 64 60 62 64 70 71 71 71 71 71
57 57 58 58 58 59 60 61 60 61 62 60 51 54 60 61 67 69 70 71 71 71
51 51 51 53 53 55 56 58 59 60 63 56 49 48 53 64 66 67 68 69 70 71
47 49 49 51 52 54 56 57 57 55 55 53 48 46 45 51 52 54 61 67 65 60
45 45 47 48 49 50 50 51 51 51 52 51 51 46 45 45 47 47 50 53 53 52

GFSNIL_sfc_30mbdewp_096.txt.gz
Dewpoint
69 65 67 66 66 69 67 66 68 68 68 69 69 69 70 67 66 66 66 67 68 63
69 69 65 68 67 69 69 67 68 67 67 67 68 69 70 66 68 69 68 66 67 66
66 66 66 67 68 68 68 71 69 68 67 67 67 69 71 66 67 69 67 65 66 67
67 66 66 66 67 67 69 70 70 69 67 68 67 67 69 68 68 69 67 68 67 67
67 67 66 66 67 68 68 70 70 70 70 69 67 68 68 68 67 68 67 66 66 67
67 67 67 67 67 68 69 68 67 68 68 68 68 68 69 70 69 67 66 66 66 67
67 67 69 68 68 68 69 69 67 67 67 68 70 70 69 69 70 69 67 67 66 66
68 69 68 69 69 69 69 69 69 70 70 70 70 68 70 69 68 68 68 67 67 67
68 68 68 68 68 68 68 68 69 69 70 69 68 63 66 69 69 68 68 68 69 69
66 66 65 64 65 66 66 66 66 67 68 65 62 56 60 63 69 69 70 69 69 68
62 62 63 62 62 63 63 64 64 64 65 59 50 50 57 61 67 69 69 69 70 70
54 55 58 59 60 61 61 62 63 63 62 56 50 45 49 59 65 67 68 69 64 66
52 52 53 54 55 57 58 60 60 61 57 52 51 44 45 51 55 59 61 67 64 51
48 50 51 52 52 54 55 57 57 57 56 53 51 45 44 45 45 47 52 55 55 55

GFSNIL_sfc_30mbdewp_102.txt.gz
Dewpoint
70 69 68 69 68 66 69 68 71 69 70 70 71 69 69 69 69 70 70 69 69 70
69 69 68 69 70 69 70 68 69 65 69 69 70 68 70 69 68 69 67 69 70 69
70 71 69 69 69 69 69 65 64 65 69 69 68 69 69 69 69 70 67 69 68 69
69 69 69 69 68 68 69 65 66 70 69 69 69 69 70 70 70 68 68 68 68 68
69 70 67 67 68 68 68 70 70 70 70 70 69 69 70 70 69 68 68 68 68 68
69 68 69 69 67 71 69 69 70 70 70 69 70 69 70 70 70 70 69 69 68 68
69 69 69 69 69 68 69 68 69 69 69 69 70 69 70 71 70 70 70 69 69 69
69 68 68 68 68 68 67 69 70 69 69 68 66 64 66 68 70 69 69 69 69 69
69 69 69 69 67 67 67 68 69 68 70 67 63 56 59 63 70 68 68 69 71 71
68 68 69 69 68 68 67 68 66 70 66 57 51 51 54 59 65 69 69 69 70 69
68 67 67 66 66 66 66 66 67 66 63 57 47 47 51 58 63 67 69 71 72 71
64 64 64 64 65 65 66 65 66 66 63 58 48 43 47 57 59 69 70 66 57 62
59 61 61 61 61 63 64 65 65 62 59 58 51 42 41 50 55 57 57 64 54 47
54 56 57 57 58 59 61 63 63 61 59 53 52 43 40 40 48 47 52 52 51 50

GFSNIL_sfc_30mbdewp_105.txt.gz
Dewpoint
69 69 69 70 68 67 66 69 70 70 70 69 70 70 70 68 69 69 68 67 70 68
70 69 68 69 70 71 70 67 69 68 66 67 70 70 70 68 68 68 66 63 68 70
69 70 69 69 68 68 67 67 68 65 64 67 70 69 69 70 70 69 64 60 69 68
69 70 69 69 70 69 67 64 63 63 68 70 70 69 69 69 69 67 68 69 69 67
70 68 69 68 68 69 69 68 68 70 71 70 70 69 70 70 69 69 68 67 68 67
67 65 69 69 67 68 69 70 71 70 70 70 69 69 70 70 69 69 69 68 68 68
68 69 69 70 70 69 69 68 69 69 70 69 69 68 69 70 70 69 69 70 69 69
67 68 67 67 66 67 67 67 69 69 68 67 65 63 64 66 68 69 69 70 69 70
68 67 67 68 68 67 67 67 68 68 66 62 56 54 56 60 65 69 69 69 69 70
69 68 69 69 69 67 66 67 68 63 56 49 46 49 53 58 61 66 68 69 70 69
68 67 67 66 66 65 66 67 65 61 56 48 42 46 53 58 63 67 68 65 67 61
65 65 65 63 66 66 66 66 64 61 57 50 41 42 51 56 60 67 58 53 53 48
61 61 60 60 61 61 63 65 61 59 56 51 43 41 41 50 51 55 61 57 52 47
56 57 57 57 58 59 62 63 61 58 54 52 44 40 38 40 41 45 50 52 50 47

GFSNIL_sfc_30mbdewp_108.txt.gz
Dewpoint
69 68 67 67 67 68 67 67 68 69 70 70 69 68 70 69 69 69 68 66 67 69
68 69 69 69 69 68 68 69 68 69 67 67 69 70 70 69 68 68 67 64 68 68
69 69 69 70 69 69 69 69 69 68 66 65 67 69 69 69 69 68 68 64 68 67
70 70 70 68 68 68 67 66 68 65 63 66 69 69 69 69 69 67 66 68 68 67
70 69 69 69 69 68 67 66 63 64 68 70 70 70 69 68 70 68 68 67 68 67
69 67 69 68 68 69 69 69 68 70 70 70 70 70 70 70 70 69 69 69 68 68
67 67 69 69 68 67 69 68 69 70 70 69 67 67 67 68 69 69 69 70 70 69
68 69 68 68 68 68 67 67 68 68 67 65 64 62 63 65 66 69 66 69 70 69
67 66 66 66 67 67 67 67 69 67 64 59 55 54 57 59 63 66 69 68 69 66
67 67 67 68 68 67 66 67 65 58 51 48 47 51 55 59 60 65 69 69 69 64
68 68 67 67 66 65 66 66 59 54 48 43 43 52 57 63 65 65 64 65 61 54
67 66 65 65 65 65 65 63 60 56 50 44 40 50 54 63 64 58 54 50 47 44
64 63 62 62 61 62 66 64 61 56 51 44 40 41 46 51 59 60 56 54 52 43
60 60 59 59 59 62 63 60 58 56 53 44 39 38 40 40 43 48 52 51 49 44

GFSNIL_sfc_30mbdewp_111.txt.gz
Dewpoint
67 67 67 67 66 67 68 67 68 68 70 69 68 65 69 69 68 69 68 66 68 68
68 68 67 68 67 67 69 68 68 69 69 69 70 69 69 69 67 68 67 65 65 69
67 68 68 69 68 68 68 69 66 69 67 66 67 69 70 69 69 67 67 64 65 68
68 69 69 69 68 68 69 68 67 68 66 64 66 68 69 69 69 68 66 68 68 67
69 70 69 69 68 68 67 66 65 66 65 66 69 70 69 68 69 68 67 67 67 67
69 69 69 69 69 69 68 67 67 67 68 70 70 69 70 70 69 69 69 69 68 67
68 68 68 69 68 68 69 68 69 69 70 69 67 67 67 68 69 69 69 69 69 69
69 70 69 69 68 68 68 67 68 69 68 66 65 63 63 64 66 67 66 69 70 69
69 68 68 68 67 67 67 67 69 67 65 61 59 55 56 59 62 66 68 68 68 66
67 66 66 66 67 66 66 67 66 61 57 52 50 53 56 58 60 65 68 69 69 63
67 67 68 68 67 66 66 64 60 52 47 45 49 54 62 63 64 65 65 64 62 56
67 67 66 65 64 65 64 60 55 50 46 44 45 50 63 64 61 60 54 51 49 45
67 65 65 64 64 64 63 61 56 52 45 41 39 43 52 60 56 52 51 53 48 43
62 62 62 61 61 64 63 59 56 52 46 39 38 41 42 45 50 54 54 51 49 42

GFSNIL_sfc_30mbdewp_114.txt.gz
Dewpoint
67 66 66 66 67 67 67 68 68 68 70 70 68 65 64 69 69 69 69 67 69 68
68 67 67 67 67 67 68 69 68 68 70 70 70 69 69 69 68 68 67 66 66 69
67 68 68 68 68 68 68 68 68 68 69 69 68 69 70 70 69 68 67 65 65 68
67 68 68 69 69 68 68 69 68 67 68 67 66 68 69 69 69 68 68 68 67 68
68 69 69 69 69 68 68 67 66 67 67 65 66 69 69 69 69 69 68 67 67 67
68 69 69 69 69 69 68 67 66 64 65 65 69 70 70 70 69 69 69 69 68 68
69 68 65 66 68 68 68 68 68 68 69 70 69 69 69 68 69 69 70 70 70 69
68 68 68 68 68 69 69 68 68 69 69 68 67 65 64 65 66 67 68 69 70 70
67 66 67 69 69 68 68 68 68 67 66 65 63 56 57 59 62 64 67 68 70 67
68 67 67 68 68 67 67 67 67 66 63 58 53 54 56 58 60 63 67 69 68 63
67 67 67 67 67 67 67 66 64 58 51 48 51 54 62 62 64 65 63 64 64 59
67 67 67 67 67 66 65 61 56 50 47 47 48 53 63 64 63 59 56 53 52 51
67 67 66 65 65 65 62 58 52 48 45 41 42 45 56 59 56 53 52 51 47 45
64 65 64 64 64 64 61 56 53 49 42 41 42 43 43 48 55 56 56 53 50 45

GFSNIL_sfc_30mbdewp_117.txt.gz
Dewpoint
69 67 67 68 68 68 68 69 70 70 71 71 71 70 69 68 70 70 70 71 71 69
69 69 68 69 69 69 70 69 70 70 70 71 71 70 70 67 70 70 70 69 69 69
68 70 70 70 70 70 70 70 71 70 70 71 71 71 71 71 71 71 69 68 67 69
69 69 70 70 70 71 71 71 70 70 70 70 70 70 71 71 71 70 70 70 69 69
69 70 70 70 71 71 71 71 70 70 69 69 70 69 70 70 69 69 69 69 69 69
69 70 70 71 71 71 71 70 69 69 68 70 69 68 70 71 71 69 69 69 69 69
69 70 70 71 69 69 70 70 70 70 70 69 69 71 71 71 71 71 70 70 69 70
70 71 70 69 69 69 69 69 69 70 70 71 71 70 70 70 69 69 69 70 71 71
70 70 69 69 70 69 69 69 69 69 67 67 67 58 57 61 67 67 67 68 70 69
68 68 67 68 69 69 68 68 68 68 66 64 58 54 56 57 62 65 67 69 70 67
67 67 68 68 68 68 68 67 67 65 61 58 56 53 61 62 64 67 66 66 68 65
67 67 67 67 67 68 67 66 64 59 54 53 52 53 63 65 65 63 58 57 57 58
67 67 67 67 66 66 66 63 59 54 51 47 50 48 56 61 62 60 56 53 49 44
63 65 66 66 65 63 61 59 56 54 50 48 48 45 45 53 60 59 59 56 54 50

GFSNIL_sfc_30mbdewp_123.txt.gz
Dewpoint
66 66 64 66 63 63 63 63 67 69 68 68 69 68 69 68 67 66 65 67 68 66
67 66 64 67 67 67 66 66 68 68 68 68 68 68 68 68 66 66 68 65 67 67
66 67 67 69 69 67 68 70 69 69 69 69 69 69 69 68 68 67 67 65 66 66
65 66 67 67 68 69 69 70 70 70 70 70 70 70 71 71 70 68 68 67 66 67
66 65 65 66 66 70 70 70 71 71 70 70 70 70 70 71 68 68 67 68 68 66
66 67 66 66 67 68 70 70 69 70 70 70 69 69 69 70 69 68 67 66 66 66
65 65 66 67 68 67 67 69 68 69 70 69 68 68 69 69 69 69 69 69 69 68
67 66 67 67 68 68 68 68 67 66 67 68 68 67 68 69 69 68 68 68 69 69
69 68 68 69 69 70 69 69 68 68 68 68 67 62 62 65 67 67 67 67 68 69
68 69 69 68 70 70 70 70 69 69 69 69 64 57 57 58 63 66 67 67 68 69
69 69 69 69 69 70 70 70 70 68 69 69 59 56 59 63 65 65 68 67 67 71
67 68 68 68 69 69 69 68 68 67 64 62 57 56 59 63 66 65 64 62 60 64
68 68 68 68 68 68 68 67 63 60 58 58 56 50 52 55 62 66 65 62 56 53
66 66 67 67 67 64 61 59 57 56 56 53 52 47 44 47 57 59 63 62 60 50